OK,193,42,819,193,2014-10-01T01:40:00,0,28072589,210093
OK,193,42,819,193,2014-10-01T01:45:00,0,28073036,210093
OK,193,42,819,193,2014-10-01T01:50:00,0,28073485,210093
OK,367,22,819,367,2014-10-01T01:55:00,1,28073803,210093
OK,367,22,819,367,2014-10-01T02:00:00,1,28074251,210093
OK,367,22,819,367,2014-10-01T02:05:00,0,28074694,210093
OK,367,22,819,367,2014-10-01T02:10:00,0,28075140,210093
OK,367,22,819,367,2014-10-01T02:20:00,0,28075589,210093
OK,367,22,819,367,2014-10-01T02:30:00,0,28076421,210093
OK,367,22,819,367,2014-10-01T02:35:00,0,28076870,210093
OK,367,22,819,367,2014-10-01T02:40:00,0,28077319,210093
OK,367,22,819,367,2014-10-01T02:45:00,0,28078171,210093
OK,367,22,819,367,2014-10-01T02:55:00,0,28078616,210093
OK,367,22,819,367,2014-10-01T03:00:00,0,28079065,210093
OK,367,22,819,367,2014-10-01T03:05:00,0,28079507,210093
OK,367,22,819,367,2014-10-01T03:10:00,0,28079956,210093
OK,367,22,819,367,2014-10-01T03:20:00,0,28080739,210093
OK,367,22,819,367,2014-10-01T03:25:00,0,28081188,210093
OK,367,22,819,367,2014-10-01T03:30:00,0,28081635,210093
OK,367,22,819,367,2014-10-01T03:35:00,0,28082084,210093
OK,367,22,819,367,2014-10-01T03:40:00,0,28082524,210093
OK,367,22,819,367,2014-10-01T03:50:00,0,28083398,210093
OK,367,22,819,367,2014-10-01T03:55:00,0,28083847,210093
OK,367,22,819,367,2014-10-01T04:00:00,0,28084296,210093
OK,367,22,819,367,2014-10-01T04:05:00,0,28084722,210093
OK,367,22,819,367,2014-10-01T04:10:00,0,28085162,210093
OK,367,22,819,367,2014-10-01T04:15:00,0,28085608,210093
OK,367,22,819,367,2014-10-01T04:20:00,0,28086056,210093
OK,367,22,819,367,2014-10-01T04:25:00,0,28086500,210093
OK,367,22,819,367,2014-10-01T04:30:00,0,28086947,210093
OK,367,22,819,367,2014-10-01T04:35:00,0,28087392,210093
OK,367,22,819,367,2014-10-01T04:40:00,0,28087841,210093
OK,367,22,819,367,2014-10-01T04:50:00,0,28088714,210093
OK,367,22,819,367,2014-10-01T04:55:00,0,28089147,210093
OK,367,22,819,367,2014-10-01T05:00:00,0,28089593,210093
OK,367,22,819,367,2014-10-01T05:05:00,0,28090042,210093
OK,367,22,819,367,2014-10-01T05:15:00,0,28090835,210093
OK,367,22,819,367,2014-10-01T05:20:00,0,28091284,210093
OK,367,22,819,367,2014-10-01T05:25:00,0,28091706,210093
OK,367,22,819,367,2014-10-01T05:30:00,0,28092150,210093
OK,367,22,819,367,2014-10-01T05:35:00,0,28092595,210093
OK,367,22,819,367,2014-10-01T05:40:00,0,28093036,210093
OK,367,22,819,367,2014-10-01T05:50:00,0,28093915,210093
OK,284,28,819,284,2014-10-01T06:00:00,1,28094771,210093
OK,284,28,819,284,2014-10-01T06:10:00,0,28095667,210093
OK,284,28,819,284,2014-10-01T06:20:00,0,28096529,210093
OK,284,28,819,284,2014-10-01T06:25:00,0,28096967,210093
OK,284,28,819,284,2014-10-01T06:30:00,0,28097412,210093
OK,284,28,819,284,2014-10-01T06:35:00,0,28097861,210093
OK,284,28,819,284,2014-10-01T06:40:00,0,28098305,210093
OK,284,28,819,284,2014-10-01T06:45:00,0,28098744,210093
OK,284,28,819,284,2014-10-01T06:50:00,0,28099190,210093
OK,284,28,819,284,2014-10-01T07:00:00,0,28099982,210093
OK,284,28,819,284,2014-10-01T07:05:00,0,28100738,210093
OK,284,28,819,284,2014-10-01T07:10:00,0,28101113,210093
OK,182,45,819,182,2014-10-01T07:20:00,1,28101558,210093
OK,182,45,819,182,2014-10-01T07:25:00,1,28101996,210093
OK,182,45,819,182,2014-10-01T07:30:00,0,28102443,210093
OK,182,45,819,182,2014-10-01T07:35:00,0,28102885,210093
OK,182,45,819,182,2014-10-01T07:40:00,0,28103317,210093
OK,182,45,819,182,2014-10-01T07:45:00,0,28103764,210093
OK,182,45,819,182,2014-10-01T07:50:00,0,28104208,210093
OK,446,18,819,446,2014-10-01T07:55:00,1,28104649,210093
OK,446,18,819,446,2014-10-01T08:00:00,1,28105093,210093
OK,446,18,819,446,2014-10-01T08:10:00,0,28105982,210093
OK,446,18,819,446,2014-10-01T08:15:00,0,28106829,210093
OK,446,18,819,446,2014-10-01T08:20:00,0,28107257,210093
OK,446,18,819,446,2014-10-01T08:25:00,0,28107706,210093
OK,446,18,819,446,2014-10-01T08:30:00,0,28108146,210093
OK,446,18,819,446,2014-10-01T08:40:00,0,28108594,210093
OK,446,18,819,446,2014-10-01T08:50:00,0,28109471,210093
OK,446,18,819,446,2014-10-01T08:55:00,0,28110263,210093
OK,446,18,819,446,2014-10-01T09:00:00,0,28110689,210093
OK,446,18,819,446,2014-10-01T09:10:00,0,28111135,210093
OK,446,18,819,446,2014-10-01T09:20:00,0,28112013,210093
OK,446,18,819,446,2014-10-01T09:30:00,0,28112803,210093
OK,446,18,819,446,2014-10-01T09:35:00,0,28113676,210093
OK,446,18,819,446,2014-10-01T09:40:00,0,28114109,210093
OK,446,18,819,446,2014-10-01T09:45:00,0,28114557,210093
OK,310,26,819,310,2014-10-01T09:50:00,1,28114913,210093
OK,277,29,819,277,2014-10-01T10:00:00,2,28115360,210093
OK,229,35,819,229,2014-10-01T10:10:00,0,28116221,210093
OK,383,21,819,383,2014-10-01T10:20:00,1,28117078,210093
OK,383,21,819,383,2014-10-01T10:25:00,0,28117952,210093
OK,383,21,819,383,2014-10-01T10:30:00,0,28118397,210093
OK,383,21,819,383,2014-10-01T10:35:00,0,28118845,210093
OK,383,21,819,383,2014-10-01T10:40:00,0,28119288,210093
OK,383,21,819,383,2014-10-01T10:45:00,0,28119736,210093
OK,528,15,819,528,2014-10-01T10:50:00,1,28120184,210093
OK,209,39,819,209,2014-10-01T11:00:00,1,28120633,210093
OK,209,39,819,209,2014-10-01T11:05:00,0,28121465,210093
OK,209,39,819,209,2014-10-01T11:10:00,0,28121904,210093
OK,209,39,819,209,2014-10-01T11:15:00,0,28122352,210093
OK,209,39,819,209,2014-10-01T11:20:00,0,28122794,210093
OK,209,39,819,209,2014-10-01T11:25:00,0,28123242,210093
OK,209,39,819,209,2014-10-01T11:30:00,0,28123676,210093
OK,209,39,819,209,2014-10-01T11:40:00,0,28124123,210093
OK,209,39,819,209,2014-10-01T11:50:00,0,28124974,210093
OK,209,39,819,209,2014-10-01T11:55:00,0,28125852,210093
OK,209,39,819,209,2014-10-01T12:00:00,0,28126206,210093
OK,209,39,819,209,2014-10-01T12:05:00,0,28126653,210093
OK,209,39,819,209,2014-10-01T12:10:00,0,28127102,210093
OK,209,39,819,209,2014-10-01T12:15:00,0,28127551,210093
OK,209,39,819,209,2014-10-01T12:20:00,0,28127981,210093
OK,209,39,819,209,2014-10-01T12:30:00,0,28128428,210093
OK,209,39,819,209,2014-10-01T12:35:00,0,28129312,210093
OK,209,39,819,209,2014-10-01T12:40:00,0,28129747,210093
OK,209,39,819,209,2014-10-01T12:45:00,0,28130195,210093
OK,209,39,819,209,2014-10-01T12:50:00,0,28130625,210093
OK,209,39,819,209,2014-10-01T12:55:00,0,28131072,210093
OK,232,35,819,232,2014-10-01T13:00:00,1,28131511,210093
OK,427,19,819,427,2014-10-01T13:05:00,2,28131958,210093
OK,623,13,819,623,2014-10-01T13:10:00,0,28132397,210093
OK,623,13,819,623,2014-10-01T13:15:00,0,28132843,210093
OK,623,13,819,623,2014-10-01T13:20:00,0,28133281,210093
OK,623,13,819,623,2014-10-01T13:25:00,0,28133730,210093
OK,474,17,819,474,2014-10-01T13:30:00,2,28134169,210093
OK,474,17,819,474,2014-10-01T13:35:00,2,28134618,210093
OK,618,13,819,618,2014-10-01T13:40:00,0,28135038,210093
OK,618,13,819,618,2014-10-01T13:45:00,0,28135486,210093
OK,618,13,819,618,2014-10-01T13:50:00,0,28135923,210093
OK,618,13,819,618,2014-10-01T13:55:00,0,28136372,210093
OK,618,13,819,618,2014-10-01T14:00:00,0,28136812,210093
OK,618,13,819,618,2014-10-01T14:05:00,0,28137261,210093
OK,618,13,819,618,2014-10-01T14:10:00,0,28137696,210093
OK,618,13,819,618,2014-10-01T14:15:00,0,28138144,210093
OK,618,13,819,618,2014-10-01T14:20:00,0,28138573,210093
OK,455,18,819,455,2014-10-01T14:25:00,1,28139021,210093
OK,455,18,819,455,2014-10-01T14:30:00,0,28139433,210093
OK,455,18,819,455,2014-10-01T14:35:00,0,28139881,210093
OK,455,18,819,455,2014-10-01T14:40:00,0,28140324,210093
OK,455,18,819,455,2014-10-01T14:45:00,0,28140772,210093
OK,198,41,819,198,2014-10-01T14:50:00,1,28141200,210093
OK,198,41,819,198,2014-10-01T14:55:00,0,28141647,210093
OK,165,49,819,165,2014-10-01T15:00:00,1,28142077,210093
OK,165,49,819,165,2014-10-01T15:05:00,0,28142524,210093
OK,165,49,819,165,2014-10-01T15:10:00,0,28142954,210093
OK,165,49,819,165,2014-10-01T15:15:00,0,28143400,210093
OK,165,49,819,165,2014-10-01T15:20:00,0,28143848,210093
OK,165,49,819,165,2014-10-01T15:30:00,0,28144297,210093
OK,165,49,819,165,2014-10-01T15:35:00,0,28145132,210093
OK,165,49,819,165,2014-10-01T15:40:00,0,28145581,210093
OK,165,49,819,165,2014-10-01T15:45:00,0,28146030,210093
OK,165,49,819,165,2014-10-01T15:55:00,0,28146479,210093
OK,165,49,819,165,2014-10-01T16:00:00,0,28147332,210093
OK,165,49,819,165,2014-10-01T16:05:00,0,28147780,210093
OK,215,38,819,215,2014-10-01T16:10:00,1,28148183,210093
OK,215,38,819,215,2014-10-01T16:15:00,0,28148630,210093
OK,215,38,819,215,2014-10-01T16:20:00,0,28149071,210093
OK,215,38,819,215,2014-10-01T16:25:00,0,28149518,210093
OK,215,38,819,215,2014-10-01T16:30:00,0,28149947,210093
OK,215,38,819,215,2014-10-01T16:35:00,0,28150393,210093
OK,215,38,819,215,2014-10-01T16:40:00,0,28150814,210093
OK,215,38,819,215,2014-10-01T16:45:00,0,28151260,210093
OK,215,38,819,215,2014-10-01T16:55:00,1,28151709,210093
OK,215,38,819,215,2014-10-01T17:00:00,1,28152158,210093
OK,215,38,819,215,2014-10-01T17:05:00,0,28152604,210093
OK,215,38,819,215,2014-10-01T17:10:00,0,28153051,210093
OK,215,38,819,215,2014-10-01T17:20:00,0,28153500,210093
OK,215,38,819,215,2014-10-01T17:30:00,0,28154359,210093
OK,215,38,819,215,2014-10-01T17:40:00,0,28155249,210093
OK,215,38,819,215,2014-10-01T17:45:00,0,28156116,210093
OK,215,38,819,215,2014-10-01T17:55:00,0,28156565,210093
OK,215,38,819,215,2014-10-01T18:00:00,0,28157436,210093
OK,215,38,819,215,2014-10-01T18:05:00,0,28157881,210093
OK,215,38,819,215,2014-10-01T18:10:00,0,28158325,210093
OK,215,38,819,215,2014-10-01T18:15:00,0,28158772,210093
OK,215,38,819,215,2014-10-01T18:20:00,0,28159217,210093
OK,215,38,819,215,2014-10-01T18:25:00,0,28159553,210093
OK,215,38,819,215,2014-10-01T18:30:00,0,28160001,210093
OK,215,38,819,215,2014-10-01T18:35:00,0,28160450,210093
OK,215,38,819,215,2014-10-01T18:40:00,0,28160890,210093
OK,215,38,819,215,2014-10-01T18:45:00,0,28161337,210093
OK,215,38,819,215,2014-10-01T18:50:00,0,28161755,210093
OK,215,38,819,215,2014-10-01T19:00:00,0,28162203,210093
OK,215,38,819,215,2014-10-01T19:05:00,0,28163037,210093
OK,215,38,819,215,2014-10-01T19:10:00,0,28163484,210093
OK,215,38,819,215,2014-10-01T19:15:00,0,28163933,210093
OK,215,38,819,215,2014-10-01T19:20:00,0,28164366,210093
OK,215,38,819,215,2014-10-01T19:30:00,0,28164813,210093
OK,215,38,819,215,2014-10-01T19:35:00,0,28165686,210093
OK,215,38,819,215,2014-10-01T19:40:00,0,28166127,210093
OK,215,38,819,215,2014-10-01T19:45:00,0,28166489,210093
OK,215,38,819,215,2014-10-01T19:50:00,0,28166938,210093
OK,215,38,819,215,2014-10-01T19:55:00,0,28167367,210093
OK,215,38,819,215,2014-10-01T20:00:00,0,28167801,210093
OK,215,38,819,215,2014-10-01T20:05:00,0,28168249,210093
OK,215,38,819,215,2014-10-01T20:10:00,0,28168694,210093
OK,215,38,819,215,2014-10-01T20:15:00,0,28169143,210093
OK,215,38,819,215,2014-10-01T20:20:00,0,28169591,210093
OK,215,38,819,215,2014-10-01T20:25:00,0,28170017,210093
OK,215,38,819,215,2014-10-01T20:30:00,0,28170462,210093
OK,215,38,819,215,2014-10-01T20:35:00,0,28170910,210093
OK,215,38,819,215,2014-10-01T20:40:00,0,28171347,210093
OK,215,38,819,215,2014-10-01T20:45:00,0,28171793,210093
OK,215,38,819,215,2014-10-01T20:50:00,0,28172241,210093
OK,215,38,819,215,2014-10-01T20:55:00,0,28172687,210093
OK,215,38,819,215,2014-10-01T21:00:00,0,28173133,210093
OK,215,38,819,215,2014-10-01T21:05:00,0,28173582,210093
OK,215,38,819,215,2014-10-01T21:10:00,0,28174023,210093
OK,215,38,819,215,2014-10-01T21:15:00,0,28174472,210093
OK,215,38,819,215,2014-10-01T21:20:00,0,28174898,210093
OK,215,38,819,215,2014-10-01T21:25:00,0,28175294,210093
OK,215,38,819,215,2014-10-01T21:30:00,0,28175743,210093
OK,215,38,819,215,2014-10-01T21:35:00,0,28176192,210093
OK,215,38,819,215,2014-10-01T21:45:00,0,28176641,210093
OK,215,38,819,215,2014-10-01T21:50:00,0,28177437,210093
OK,215,38,819,215,2014-10-01T21:55:00,0,28177883,210093
OK,215,38,819,215,2014-10-01T22:00:00,0,28178332,210093
OK,215,38,819,215,2014-10-01T22:05:00,0,28178779,210093
OK,215,38,819,215,2014-10-01T22:10:00,0,28179215,210093
OK,215,38,819,215,2014-10-01T22:15:00,0,28179656,210093
OK,215,38,819,215,2014-10-01T22:20:00,0,28180103,210093
OK,215,38,819,215,2014-10-01T22:25:00,0,28180502,210093
OK,215,38,819,215,2014-10-01T22:30:00,0,28180950,210093
OK,215,38,819,215,2014-10-01T22:35:00,0,28181374,210093
OK,215,38,819,215,2014-10-01T22:40:00,0,28181822,210093
OK,215,38,819,215,2014-10-01T22:45:00,0,28182269,210093
OK,215,38,819,215,2014-10-01T22:50:00,0,28182718,210093
OK,215,38,819,215,2014-10-01T22:55:00,0,28183135,210093
OK,215,38,819,215,2014-10-01T23:00:00,0,28183568,210093
OK,215,38,819,215,2014-10-01T23:05:00,0,28184013,210093
OK,215,38,819,215,2014-10-01T23:10:00,0,28184462,210093
OK,215,38,819,215,2014-10-01T23:15:00,0,28184897,210093
OK,215,38,819,215,2014-10-01T23:20:00,0,28185345,210093
OK,215,38,819,215,2014-10-01T23:25:00,0,28185776,210093
OK,215,38,819,215,2014-10-01T23:30:00,0,28186168,210093
OK,215,38,819,215,2014-10-01T23:40:00,0,28187015,210093
OK,215,38,819,215,2014-10-01T23:45:00,0,28187457,210093
OK,215,38,819,215,2014-10-01T23:50:00,0,28187906,210093
OK,215,38,819,215,2014-10-01T23:55:00,0,28188347,210093
OK,215,38,819,215,2014-10-02T00:00:00,0,28188783,210093
OK,215,38,819,215,2014-10-02T00:05:00,0,28189232,210093
OK,215,38,819,215,2014-10-02T00:10:00,0,28189657,210093
OK,215,38,819,215,2014-10-02T00:15:00,0,28190103,210093
OK,215,38,819,215,2014-10-02T00:20:00,0,28190459,210093
OK,215,38,819,215,2014-10-02T00:25:00,0,28190905,210093
OK,215,38,819,215,2014-10-02T00:30:00,0,28191354,210093
OK,215,38,819,215,2014-10-02T00:35:00,0,28191663,210093
OK,215,38,819,215,2014-10-02T00:40:00,0,28192109,210093
OK,215,38,819,215,2014-10-02T00:45:00,0,28192543,210093
OK,215,38,819,215,2014-10-02T00:50:00,0,28192986,210093
OK,215,38,819,215,2014-10-02T00:55:00,0,28193353,210093
OK,215,38,819,215,2014-10-02T01:00:00,0,28193802,210093
OK,215,38,819,215,2014-10-02T01:10:00,0,28194251,210093
OK,215,38,819,215,2014-10-02T01:15:00,0,28194700,210093
OK,215,38,819,215,2014-10-02T01:20:00,0,28195385,210093
OK,215,38,819,215,2014-10-02T01:30:00,0,28195834,210093
OK,215,38,819,215,2014-10-02T01:35:00,0,28196567,210093
OK,215,38,819,215,2014-10-02T01:40:00,0,28196992,210093
OK,215,38,819,215,2014-10-02T01:45:00,0,28197439,210093
OK,215,38,819,215,2014-10-02T01:50:00,0,28197887,210093
OK,215,38,819,215,2014-10-02T01:55:00,0,28198335,210093
OK,215,38,819,215,2014-10-02T02:05:00,0,28198784,210093
OK,215,38,819,215,2014-10-02T02:10:00,0,28199598,210093
OK,215,38,819,215,2014-10-02T02:15:00,0,28200040,210093
OK,215,38,819,215,2014-10-02T02:20:00,0,28200483,210093
OK,215,38,819,215,2014-10-02T02:25:00,0,28200932,210093
OK,215,38,819,215,2014-10-02T02:30:00,0,28201363,210093
OK,215,38,819,215,2014-10-02T02:45:00,0,28202261,210093
OK,215,38,819,215,2014-10-02T02:50:00,0,28202703,210093
OK,215,38,819,215,2014-10-02T02:55:00,0,28203151,210093
OK,215,38,819,215,2014-10-02T03:00:00,0,28203586,210093
OK,215,38,819,215,2014-10-02T03:10:00,0,28204035,210093
OK,215,38,819,215,2014-10-02T03:25:00,0,28204484,210093
OK,215,38,819,215,2014-10-02T03:30:00,0,28204933,210093
OK,215,38,819,215,2014-10-02T03:35:00,0,28205363,210093
OK,215,38,819,215,2014-10-02T03:40:00,0,28205808,210093
OK,215,38,819,215,2014-10-02T03:45:00,0,28206191,210093
OK,215,38,819,215,2014-10-02T03:55:00,0,28207089,210093
OK,215,38,819,215,2014-10-02T04:00:00,0,28207511,210093
OK,215,38,819,215,2014-10-02T04:05:00,0,28207957,210093
OK,215,38,819,215,2014-10-02T04:10:00,0,28208387,210093
OK,215,38,819,215,2014-10-02T04:15:00,0,28208833,210093
OK,215,38,819,215,2014-10-02T04:20:00,0,28209272,210093
OK,215,38,819,215,2014-10-02T04:30:00,0,28209720,210093
OK,215,38,819,215,2014-10-02T04:35:00,0,28210592,210093
OK,215,38,819,215,2014-10-02T04:40:00,0,28211021,210093
OK,215,38,819,215,2014-10-02T04:45:00,0,28211461,210093
OK,215,38,819,215,2014-10-02T04:50:00,0,28211839,210093
OK,215,38,819,215,2014-10-02T05:00:00,0,28212288,210093
OK,215,38,819,215,2014-10-02T05:10:00,0,28213166,210093
OK,215,38,819,215,2014-10-02T05:20:00,0,28214053,210093
OK,215,38,819,215,2014-10-02T05:30:00,0,28214915,210093
OK,215,38,819,215,2014-10-02T05:40:00,0,28215780,210093
OK,215,38,819,215,2014-10-02T05:45:00,0,28216559,210093
OK,215,38,819,215,2014-10-02T05:50:00,0,28217006,210093
OK,215,38,819,215,2014-10-02T05:55:00,0,28217455,210093
OK,215,38,819,215,2014-10-02T06:00:00,0,28217894,210093
OK,215,38,819,215,2014-10-02T06:10:00,0,28218343,210093
OK,215,38,819,215,2014-10-02T06:15:00,0,28219212,210093
OK,215,38,819,215,2014-10-02T06:20:00,0,28219587,210093
OK,215,38,819,215,2014-10-02T06:25:00,0,28220034,210093
OK,215,38,819,215,2014-10-02T06:30:00,0,28220470,210093
OK,215,38,819,215,2014-10-02T06:40:00,0,28220917,210093
OK,215,38,819,215,2014-10-02T06:45:00,0,28221584,210093
OK,215,38,819,215,2014-10-02T07:00:00,0,28222178,210093
OK,215,38,819,215,2014-10-02T07:05:00,0,28222627,210093
OK,215,38,819,215,2014-10-02T07:10:00,0,28223060,210093
OK,215,38,819,215,2014-10-02T07:15:00,0,28223494,210093
OK,215,38,819,215,2014-10-02T07:20:00,0,28223941,210093
OK,215,38,819,215,2014-10-02T07:25:00,0,28224296,210093
OK,215,38,819,215,2014-10-02T07:30:00,0,28224745,210093
OK,215,38,819,215,2014-10-02T07:40:00,0,28225194,210093
OK,215,38,819,215,2014-10-02T07:50:00,0,28226407,210093
OK,215,38,819,215,2014-10-02T08:00:00,0,28226855,210093
OK,215,38,819,215,2014-10-02T08:10:00,0,28227719,210093
OK,215,38,819,215,2014-10-02T08:20:00,0,28228527,210093
OK,140,58,819,140,2014-10-02T08:30:00,1,28229386,210093
OK,247,33,819,247,2014-10-02T08:40:00,1,28230185,210093
OK,247,33,819,247,2014-10-02T08:50:00,0,28231000,210093
OK,247,33,819,247,2014-10-02T08:55:00,0,28231872,210093
OK,247,33,819,247,2014-10-02T09:00:00,0,28232217,210093
OK,247,33,819,247,2014-10-02T09:10:00,0,28232663,210093
OK,247,33,819,247,2014-10-02T09:20:00,0,28233112,210093
OK,247,33,819,247,2014-10-02T09:25:00,0,28233985,210093
OK,247,33,819,247,2014-10-02T09:30:00,0,28234320,210093
OK,247,33,819,247,2014-10-02T09:35:00,0,28234767,210093
OK,247,33,819,247,2014-10-02T09:40:00,0,28235194,210093
OK,247,33,819,247,2014-10-02T09:45:00,0,28235643,210093
OK,247,33,819,247,2014-10-02T09:50:00,0,28236087,210093
OK,247,33,819,247,2014-10-02T09:55:00,0,28236533,210093
OK,247,33,819,247,2014-10-02T10:00:00,0,28236938,210093
OK,247,33,819,247,2014-10-02T10:05:00,0,28237384,210093
OK,247,33,819,247,2014-10-02T10:10:00,0,28237832,210093
OK,247,33,819,247,2014-10-02T10:15:00,0,28238280,210093
OK,247,33,819,247,2014-10-02T10:20:00,0,28238721,210093
OK,247,33,819,247,2014-10-02T10:25:00,0,28239169,210093
OK,247,33,819,247,2014-10-02T10:30:00,0,28239600,210093
OK,211,38,819,211,2014-10-02T10:35:00,1,28240048,210093
OK,211,38,819,211,2014-10-02T10:40:00,0,28240493,210093
OK,211,38,819,211,2014-10-02T10:45:00,0,28240941,210093
OK,211,38,819,211,2014-10-02T10:50:00,0,28241375,210093
OK,211,38,819,211,2014-10-02T10:55:00,0,28241821,210093
OK,211,38,819,211,2014-10-02T11:00:00,0,28242219,210093
OK,211,38,819,211,2014-10-02T11:05:00,0,28242666,210093
OK,243,33,819,243,2014-10-02T11:15:00,1,28243115,210093
OK,243,33,819,243,2014-10-02T11:20:00,1,28243879,210093
OK,243,33,819,243,2014-10-02T11:25:00,0,28244308,210093
OK,243,33,819,243,2014-10-02T11:30:00,0,28244756,210093
OK,243,33,819,243,2014-10-02T11:35:00,0,28245205,210093
OK,243,33,819,243,2014-10-02T11:40:00,0,28245614,210093
OK,243,33,819,243,2014-10-02T11:45:00,0,28246060,210093
OK,243,33,819,243,2014-10-02T11:50:00,0,28246497,210093
OK,243,33,819,243,2014-10-02T11:55:00,0,28246946,210093
OK,243,33,819,243,2014-10-02T12:00:00,0,28247392,210093
OK,243,33,819,243,2014-10-02T12:05:00,0,28247824,210093
OK,243,33,819,243,2014-10-02T12:10:00,0,28248271,210093
OK,243,33,819,243,2014-10-02T12:15:00,0,28248719,210093
OK,243,33,819,243,2014-10-02T12:20:00,0,28249147,210093
OK,203,40,819,203,2014-10-02T12:25:00,3,28249590,210093
OK,270,30,819,270,2014-10-02T12:30:00,1,28250009,210093
OK,185,44,819,185,2014-10-02T12:35:00,0,28250407,210093
OK,185,44,819,185,2014-10-02T12:45:00,0,28251187,210093
OK,185,44,819,185,2014-10-02T13:20:00,0,28251732,210093
OK,185,44,819,185,2014-10-02T13:30:00,0,28252316,210093
OK,185,44,819,185,2014-10-02T13:35:00,0,28252758,210093
OK,185,44,819,185,2014-10-02T13:40:00,0,28253175,210093
OK,185,44,819,185,2014-10-02T13:45:00,0,28253624,210093
OK,185,44,819,185,2014-10-02T13:50:00,0,28254030,210093
OK,213,38,819,213,2014-10-02T13:55:00,1,28254350,210093
OK,283,28,819,283,2014-10-02T14:10:00,1,28254927,210093
OK,230,35,819,230,2014-10-02T14:15:00,1,28255376,210093
OK,224,36,819,224,2014-10-02T14:20:00,2,28255804,210093
OK,219,37,819,219,2014-10-02T14:25:00,1,28256253,210093
OK,219,37,819,219,2014-10-02T14:30:00,0,28256681,210093
OK,219,37,819,219,2014-10-02T14:35:00,0,28257130,210093
OK,219,37,819,219,2014-10-02T14:40:00,0,28257571,210093
OK,266,30,819,266,2014-10-02T14:45:00,1,28258019,210093
OK,266,30,819,266,2014-10-02T14:50:00,1,28258452,210093
OK,266,30,819,266,2014-10-02T14:55:00,0,28258898,210093
OK,266,30,819,266,2014-10-02T15:00:00,0,28259347,210093
OK,266,30,819,266,2014-10-02T15:05:00,0,28259794,210093
OK,249,32,819,249,2014-10-02T15:10:00,1,28260227,210093
OK,249,32,819,249,2014-10-02T15:15:00,0,28260676,210093
OK,249,32,819,249,2014-10-02T15:20:00,0,28261116,210093
OK,233,35,819,233,2014-10-02T15:25:00,1,28261498,210093
OK,233,35,819,233,2014-10-02T15:30:00,1,28261928,210093
OK,233,35,819,233,2014-10-02T15:35:00,0,28262375,210093
OK,233,35,819,233,2014-10-02T15:40:00,0,28262821,210093
OK,233,35,819,233,2014-10-02T15:45:00,0,28263259,210093
OK,233,35,819,233,2014-10-02T15:50:00,0,28263700,210093
OK,233,35,819,233,2014-10-02T15:55:00,0,28264102,210093
OK,233,35,819,233,2014-10-02T16:00:00,0,28264551,210093
OK,233,35,819,233,2014-10-02T16:05:00,0,28264989,210093
OK,233,35,819,233,2014-10-02T16:10:00,0,28265429,210093
OK,233,35,819,233,2014-10-02T16:15:00,0,28265825,210093
OK,355,23,819,355,2014-10-02T16:20:00,1,28266274,210093
OK,355,23,819,355,2014-10-02T16:25:00,1,28266723,210093
OK,355,23,819,355,2014-10-02T16:30:00,0,28267046,210093
OK,355,23,819,355,2014-10-02T16:35:00,0,28267495,210093
OK,355,23,819,355,2014-10-02T16:40:00,0,28267944,210093
OK,355,23,819,355,2014-10-02T16:45:00,0,28268386,210093
OK,355,23,819,355,2014-10-02T16:50:00,0,28268835,210093
OK,174,47,819,174,2014-10-02T16:55:00,0,28269284,210093
OK,174,47,819,174,2014-10-02T17:00:00,0,28269719,210093
OK,174,47,819,174,2014-10-02T17:05:00,0,28270168,210093
OK,174,47,819,174,2014-10-02T17:10:00,0,28270602,210093
OK,174,47,819,174,2014-10-02T17:15:00,0,28271051,210093
OK,174,47,819,174,2014-10-02T17:20:00,0,28271481,210093
OK,174,47,819,174,2014-10-02T17:25:00,0,28271929,210093
OK,174,47,819,174,2014-10-02T17:30:00,0,28272365,210093
OK,174,47,819,174,2014-10-02T17:35:00,0,28272806,210093
OK,174,47,819,174,2014-10-02T17:40:00,0,28273254,210093
OK,174,47,819,174,2014-10-02T17:45:00,0,28273700,210093
OK,174,47,819,174,2014-10-02T17:55:00,0,28274149,210093
OK,174,47,819,174,2014-10-02T18:00:00,0,28274923,210093
OK,174,47,819,174,2014-10-02T18:05:00,0,28275362,210093
OK,174,47,819,174,2014-10-02T18:10:00,0,28275807,210093
OK,174,47,819,174,2014-10-02T18:15:00,0,28276253,210093
OK,174,47,819,174,2014-10-02T18:20:00,0,28276649,210093
OK,174,47,819,174,2014-10-02T18:30:00,0,28277098,210093
OK,174,47,819,174,2014-10-02T18:40:00,0,28277547,210093
OK,174,47,819,174,2014-10-02T18:45:00,0,28278344,210093
OK,379,21,819,379,2014-10-02T19:00:00,0,28278793,210093
OK,379,21,819,379,2014-10-02T19:05:00,0,28279242,210093
OK,379,21,819,379,2014-10-02T19:10:00,0,28279687,210093
OK,379,21,819,379,2014-10-02T19:15:00,0,28280128,210093
OK,379,21,819,379,2014-10-02T19:20:00,0,28280575,210093
OK,379,21,819,379,2014-10-02T19:25:00,0,28280979,210093
OK,379,21,819,379,2014-10-02T19:35:00,0,28281877,210093